Powrót do katalogu

STARLINK-3912

AktywnyŁącznośćVLEO
NORAD 52502·PAYLOAD·🇺🇸 United States

Wystrzelony May 6, 2022 z Cape Canaveral Space Force Station

Loading…

Następne Przeloty (najbliższe 24 godziny)

TLE

ŚwieżeSource: CelesTrak SupGP

Epoka: Sep 15, 2026, 01:59 UTC

1 52502C 22049BD  26258.08312500 -.00004370  00000+0 -12504-3 0  2581
2 52502  53.1572 262.7734 0001196  87.0101 145.8315 15.35398576    14

Śledź STARLINK-3912 w czasie rzeczywistym z AllMySat

Download on the App Store